TISTTNCM

Guest
Details From TIST - St Thomas - Cyril E King
To TNCM - St Maarten - Princess Juliana Intl
Flight Number -
Tags generated
Created
Modified
Stats Distance 108 nm / 200 km
Max Altitude 6,900 ft / 2,103 m
Waypoints 4
Social Downloads 4
Likes 0
Share VATSIM

Download

Looking for another format? Having issues loading an existing format? Contact us
Advertisement - Login to hide

Notes

Basic altitude profile: - Ascent Rate: 2500ft/min - Ascent Speed: 250kts - Cruise Altitude: 35000ft - Cruise Speed: 420kts - Descent Rate: 1500ft/min - Descent Speed: 250kts Options: - Use NATs: yes - Use PACOTS: yes - Use low airways: yes - Use high airways: yes

Route

TIST JUICE B520 PJM TNCM

ID Type Via Altitude Latitude Longitude Leg Dist Tot Dist Heading (true) Name
O TIST APT - 0 ft / 0 m 18.33730˚ -64.97334˚ - 0 nm - St Thomas - Cyril E King
JUICE FIX - 6,900 ft / 2,103 m 18.13094˚ -63.66667˚ 75 nm 75 nm 99° / 100° -
PJM VOR B520 (AWY-LO) 3,000 ft / 914 m 18.03811˚ -63.11828˚ 31 nm 107 nm 100° / 100° ST MAARTEN VOR-DME
O TNCM APT - 0 ft / 0 m 18.04089˚ -63.10897˚ 0 nm 107 nm 73° / 73° St Maarten - Princess Juliana Intl

Altitude Profile

Advertisement - Login to hide

TIST

Details ICAO TIST (STT)
Name St Thomas - Cyril E King
Region USA (U.S. Virgin Islands)
Timezone Unknown (UTC+0.0)
Stats Elevation 23 ft / 7 m (AMSL)
Location 18.337300° -64.973344°
Runways 1
Magnetic Variation 13.636° W

METAR

TIST 170953Z AUTO 05007KT 10SM FEW027 SCT032 26/22 A3001

Decode

TAF

TAF TIST 170520Z 1706/1806 08008G15KT P6SM VCSH FEW030 SCT050 FM171430 07016G22KT P6SM SCT030 SCT070 FM172300 05011KT P6SM VCSH SCT025 SCT050

Decode

Departure Runways

ID Width Length Bearing (true) Bearing (mag) Surface Threshold Offset Overrun Length
10 151 ft / 46 m 6,992 ft / 2,131 m 87.44° 101.08° Asphalt 0 ft / 0 m 200 ft / 61 m
28 151 ft / 46 m 6,992 ft / 2,131 m 267.44° 281.08° Asphalt 2,300 ft / 701 m 200 ft / 61 m

TNCM

Details ICAO TNCM (SXM)
Name St Maarten - Princess Juliana Intl
Region Caribbean Netherlands, Aruba, Curaçao, Sint Maarten
Timezone Unknown (UTC+0.0)
Stats Elevation 12 ft / 4 m (AMSL)
Location 18.040889° -63.108974°
Runways 1
Magnetic Variation 14.325° W

METAR

TNCM 171000Z 05014KT 9999 FEW018 26/21 Q1016 A3000 NOSIG

Decode

TAF

TAF TNCM 170520Z 1706/1806 05013KT P6SM VCSH SCT018 FM171450 08016KT P6SM SCT022 SCT050 FM172300 07012KT P6SM SCT020 SCT050

Decode

Destination Runways

ID Width Length Bearing (true) Bearing (mag) Surface Threshold Offset Overrun Length
10 148 ft / 45 m 7,464 ft / 2,275 m 81.43° 95.76° Asphalt 0 ft / 0 m 151 ft / 46 m
28 148 ft / 45 m 7,464 ft / 2,275 m 261.44° 275.77° Asphalt 397 ft / 121 m 0 ft / 0 m

Popular Alternatives